Regional Weather Roundup
Issued by NWS

Home | Current Version | Previous Version | Graphics & Text | Print | Product List | Glossary On
Versions: 1 2 3 4 5 6 7 8 9 10 11 12 13 14 15 16 17 18 19 20 21 22 23 24 25 26 27 28 29 30 31 32 33 34 35 36 37 38 39 40 41 42 43 44 45 46 47 48 49
000
ASUS45 KCYS 070610
RWRWY

WYOMING REGIONAL WEATHER ROUNDUP
NATIONAL WEATHER SERVICE CHEYENNE WY
1100 PM MST SAT FEB 06 2016

NOTE:  "FAIR" INDICATES FEW OR NO CLOUDS BELOW 12,000 FEET
WITH NO SIGNIFICANT WEATHER AND/OR OBSTRUCTIONS TO VISIBILITY.

WYZ001-070700-
YELLOWSTONE NATIONAL PARK

CITY           SKY/WX    TMP DP  RH WIND       PRES   REMARKS
LK YELLOWSTONE   N/A     19  15  84 VRB3      30.26R
6HR MIN TEMP:  19; 6HR MAX TEMP:  22;

W YELLOWSTONE  NOT AVBL

$$
WYZ002>013-054>058-071-098>099-070700-
NORTHERN WYOMING

CITY           SKY/WX    TMP DP  RH WIND       PRES   REMARKS
JACKSON        CLOUDY    30  25  80 SE3       30.32R
CODY           FAIR      34  18  51 E6        30.14R WCI  29
GREYBULL       FAIR      28  19  69 SE3       30.15R
6HR MIN TEMP:  28; 6HR MAX TEMP:  44;

WORLAND        FAIR      29  20  69 SW5       30.14R WCI  24
6HR MIN TEMP:  29; 6HR MAX TEMP:  39;

SHERIDAN       CLOUDY    37  19  48 W28G40    30.15R WCI  25
6HR MIN TEMP:  34; 6HR MAX TEMP:  39;

BUFFALO        CLOUDY    33  18  53 N16G25    30.12R WCI  23
6HR MIN TEMP:  32; 6HR MAX TEMP:  36;

GILLETTE       CLOUDY    34  18  52 NW17      30.10S WCI  23
6HR MIN TEMP:  32; 6HR MAX TEMP:  38;

HULETT         MOCLDY    32  18  55 W8        30.06F WCI  25
NEWCASTLE      FAIR      32  14  47 NW12      30.09S WCI  23

$$
WYZ014>020-022>026-101>103-070700-
CENTRAL WYOMING

CITY           SKY/WX    TMP DP  RH WIND       PRES   REMARKS
BIG PINEY      FAIR      25  18  74 NW15      30.31F WCI  13
6HR MIN TEMP:  24; 6HR MAX TEMP:  34;

PINEDALE       FAIR      19  18  93 NW9       30.32S WCI   9
DUBOIS         CLOUDY    30  19  64 W36G44    30.17F WCI  14
LANDER         FAIR      30  16  56 CALM      30.18R
6HR MIN TEMP:  27; 6HR MAX TEMP:  40;

RIVERTON       FAIR      37  20  50 NW28G36   30.16S WCI  25
6HR MIN TEMP:  37; 6HR MAX TEMP:  45;

CASPER         FAIR      28  18  66 SW13      30.13F WCI  17
6HR MIN TEMP:  28; 6HR MAX TEMP:  33;

DOUGLAS        FAIR      30  20  66 N8          N/A  WCI  22
6HR MIN TEMP:  28; 6HR MAX TEMP:  40;


$$
WYZ021-027>030-104>119-070700-
SOUTHERN WYOMING

CITY           SKY/WX    TMP DP  RH WIND       PRES   REMARKS
EVANSTON       CLOUDY    25  14  63 SW15      30.40F WCI  13
6HR MIN TEMP:  22; 6HR MAX TEMP:  28;

FORT BRIDGER   MOCLDY    28  18  64 W17       30.40S WCI  16
ROCK SPRINGS   FAIR      27  16  63 W23G32    30.30F WCI  12
6HR MIN TEMP:  27; 6HR MAX TEMP:  31;

DIXON          FAIR      17  10  75 N6        30.39R WCI   8
RAWLINS        FAIR      27  18  69 W32G43    30.23F WCI  10
6HR MIN TEMP:  25; 6HR MAX TEMP:  28;

SARATOGA       CLOUDY    28  21  74 SW28G35   30.25F WCI  13
LARAMIE        FAIR      29  16  58 W22       30.14F WCI  15
6HR MIN TEMP:  28; 6HR MAX TEMP:  35;

CHEYENNE       FAIR      36  16  44 NW14G22   30.11R WCI  27
6HR MIN TEMP:  36; 6HR MAX TEMP:  43;

TORRINGTON     FAIR      34  22  61 NW13      30.12S WCI  25
6HR MIN TEMP:  34; 6HR MAX TEMP:  42;

PINE BLUFFS    FAIR      36  21  55 W7        30.12S WCI  30

$$



USA.gov is the U.S. government's official web portal to all federal, state and local government web resources and services.